,,,PA_Meas_PMT16A,,PR_Meas_QMR101_102,,RH_Meas_QMH101,,SR_Meas_QMS101,,TA_Meas_QMH101,,GenWind,,GenWind,
date,time,status,PA,status,PR,status,RH,status,SR,status,TA,status,DirAvg,status,SpdAvg,
2010-04-25, 00:00:04,VALID,1010.6,VALID,0,VALID,100.95,VALID,0,VALID,25.0564,VALID,80,VALID,0.633984,
2010-04-25, 00:01:04,VALID,1010.58,VALID,0,VALID,100.973,VALID,0,VALID,25.0583,VALID,48,VALID,0.26875,
2010-04-25, 00:02:04,VALID,1010.59,VALID,0,VALID,100.957,VALID,0,VALID,25.0369,VALID,58,VALID,0.421875,
2010-04-25, 00:03:04,VALID,1010.58,VALID,0,VALID,100.995,VALID,0.105969,VALID,25.0583,VALID,58,VALID,0.0714844,
2010-04-25, 00:04:04,VALID,1010.59,VALID,0,VALID,101.041,VALID,0,VALID,25.0388,VALID,58,VALID,0.00078125,
2010-04-25, 00:05:04,VALID,1010.59,VALID,0,VALID,101.079,VALID,0,VALID,24.9979,VALID,79,VALID,0.110937,
2010-04-25, 00:06:04,VALID,1010.56,VALID,0,VALID,101.14,VALID,0,VALID,24.9979,VALID,69,VALID,0.294922,
2010-04-25, 00:07:04,VALID,1010.58,VALID,0,VALID,101.14,VALID,0,VALID,24.9979,VALID,61,VALID,0.402734,
2010-04-25, 00:08:04,VALID,1010.54,VALID,0,VALID,101.201,VALID,0,VALID,24.9998,VALID,61,VALID,0.471484,
2010-04-25, 00:09:04,VALID,1010.54,VALID,0,VALID,101.255,VALID,0.105969,VALID,24.9784,VALID,105,VALID,0.615625,
2010-04-25, 00:10:04,VALID,1010.53,VALID,0,VALID,101.316,VALID,0,VALID,24.9803,VALID,95,VALID,0.622656,
2010-04-25, 00:11:04,VALID,1010.51,VALID,0,VALID,101.323,VALID,0,VALID,24.9803,VALID,104,VALID,0.767578,
2010-04-25, 00:12:04,VALID,1010.5,VALID,0,VALID,101.316,VALID,0,VALID,24.9784,VALID,82,VALID,0.886328,
2010-04-25, 00:13:04,VALID,1010.48,VALID,0,VALID,101.308,VALID,0,VALID,24.9803,VALID,81,VALID,0.657812,
2010-04-25, 00:14:04,VALID,1010.43,VALID,0,VALID,101.339,VALID,0,VALID,24.9803,VALID,112,VALID,1.33711,
2010-04-25, 00:15:04,VALID,1010.46,VALID,0,VALID,101.285,VALID,0.105969,VALID,24.9589,VALID,89,VALID,0.753125,
2010-04-25, 00:16:04,VALID,1010.46,VALID,0,VALID,101.293,VALID,0,VALID,24.9608,VALID,76,VALID,0.997656,
2010-04-25, 00:17:04,VALID,1010.47,VALID,0,VALID,101.262,VALID,0.105969,VALID,24.9608,VALID,74,VALID,1.35859,
2010-04-25, 00:18:04,VALID,1010.45,VALID,0,VALID,101.232,VALID,0.105969,VALID,24.9589,VALID,82,VALID,1.05781,
2010-04-25, 00:19:04,VALID,1010.44,VALID,0,VALID,101.217,VALID,0.105969,VALID,24.9803,VALID,91,VALID,0.415234,
2010-04-25, 00:20:04,VALID,1010.42,VALID,0,VALID,101.247,VALID,0,VALID,24.9803,VALID,86,VALID,0.687109,
2010-04-25, 00:21:04,VALID,1010.4,VALID,0,VALID,101.24,VALID,0,VALID,24.9589,VALID,104,VALID,1.04453,
2010-04-25, 00:22:04,VALID,1010.37,VALID,0,VALID,101.255,VALID,0.105969,VALID,24.9784,VALID,88,VALID,0.773047,
2010-04-25, 00:23:04,VALID,1010.33,VALID,0,VALID,101.232,VALID,0,VALID,24.9589,VALID,66,VALID,0.731641,
2010-04-25, 00:24:04,VALID,1010.31,VALID,0,VALID,101.232,VALID,0,VALID,24.9608,VALID,69,VALID,0.969141,
2010-04-25, 00:25:04,VALID,1010.27,VALID,0,VALID,101.24,VALID,0,VALID,24.9608,VALID,79,VALID,1.01797,
2010-04-25, 00:26:04,VALID,1010.24,VALID,0,VALID,101.262,VALID,0,VALID,24.9413,VALID,101,VALID,0.822656,
2010-04-25, 00:27:04,VALID,1010.22,VALID,0,VALID,101.301,VALID,0.105969,VALID,24.9413,VALID,88,VALID,1.10273,
2010-04-25, 00:28:04,VALID,1010.2,VALID,0,VALID,101.308,VALID,0.105969,VALID,24.9413,VALID,108,VALID,1.23008,
2010-04-25, 00:29:04,VALID,1010.23,VALID,0,VALID,101.293,VALID,0.105969,VALID,24.9199,VALID,114,VALID,1.6418,
2010-04-25, 00:30:04,VALID,1010.18,VALID,0,VALID,101.323,VALID,0,VALID,24.9413,VALID,108,VALID,1.01094,
2010-04-25, 00:31:04,VALID,1010.18,VALID,0,VALID,101.301,VALID,0.105969,VALID,24.9394,VALID,110,VALID,0.748047,
2010-04-25, 00:32:04,VALID,1010.15,VALID,0,VALID,101.316,VALID,0.105969,VALID,24.9199,VALID,104,VALID,0.526172,
2010-04-25, 00:33:04,VALID,1010.15,VALID,0,VALID,101.331,VALID,0.105969,VALID,24.9199,VALID,86,VALID,1.26719,
2010-04-25, 00:34:04,VALID,1010.11,VALID,0,VALID,101.354,VALID,0.105969,VALID,24.9218,VALID,132,VALID,0.981641,
2010-04-25, 00:35:04,VALID,1010.08,VALID,0,VALID,101.369,VALID,0.105969,VALID,24.9413,VALID,96,VALID,0.915234,
2010-04-25, 00:36:04,VALID,1010.1,VALID,0,VALID,101.4,VALID,0,VALID,24.9413,VALID,98,VALID,0.453516,
2010-04-25, 00:37:04,VALID,1010.08,VALID,0,VALID,101.453,VALID,0.105969,VALID,24.9199,VALID,114,VALID,0.764844,
2010-04-25, 00:38:04,VALID,1010.07,VALID,0,VALID,101.438,VALID,0.105969,VALID,24.9199,VALID,80,VALID,0.763281,
2010-04-25, 00:39:04,VALID,1010.07,VALID,0,VALID,101.453,VALID,0.105969,VALID,24.9218,VALID,111,VALID,0.75625,
2010-04-25, 00:40:04,VALID,1010.04,VALID,0,VALID,101.476,VALID,0.105969,VALID,24.9218,VALID,103,VALID,0.508984,
2010-04-25, 00:41:04,VALID,1010.03,VALID,0,VALID,101.506,VALID,0.105969,VALID,24.8809,VALID,106,VALID,0.35625,
2010-04-25, 00:42:04,VALID,1010.01,VALID,0,VALID,101.522,VALID,0,VALID,24.9023,VALID,77,VALID,0.607422,
2010-04-25, 00:43:04,VALID,1009.98,VALID,0,VALID,101.522,VALID,0.105969,VALID,24.8828,VALID,96,VALID,1.11758,
2010-04-25, 00:44:04,VALID,1009.98,VALID,0,VALID,101.537,VALID,0,VALID,24.8615,VALID,87,VALID,1.41758,
2010-04-25, 00:45:04,VALID,1009.97,VALID,0,VALID,101.491,VALID,0.105969,VALID,24.8828,VALID,68,VALID,1.01602,
2010-04-25, 00:46:04,VALID,1009.94,VALID,0,VALID,101.499,VALID,0.105969,VALID,24.8615,VALID,84,VALID,0.903906,
2010-04-25, 00:47:04,VALID,1009.96,VALID,0,VALID,101.499,VALID,0.105969,VALID,24.8633,VALID,65,VALID,1.075,
2010-04-25, 00:48:04,VALID,1009.93,VALID,0,VALID,101.514,VALID,0,VALID,24.803,VALID,89,VALID,0.667578,
2010-04-25, 00:49:04,VALID,1009.9,VALID,0,VALID,101.537,VALID,0.105969,VALID,24.803,VALID,85,VALID,0.624609,
2010-04-25, 00:50:04,VALID,1009.92,VALID,0,VALID,101.567,VALID,0,VALID,24.8244,VALID,81,VALID,0.763672,
2010-04-25, 00:51:04,VALID,1009.89,VALID,0,VALID,101.575,VALID,0.105969,VALID,24.7835,VALID,76,VALID,1.34961,
2010-04-25, 00:52:04,VALID,1009.9,VALID,0,VALID,101.583,VALID,0,VALID,24.8049,VALID,55,VALID,0.778125,
2010-04-25, 00:53:04,VALID,1009.9,VALID,0,VALID,101.613,VALID,0.105969,VALID,24.8049,VALID,77,VALID,0.5625,
2010-04-25, 00:54:04,VALID,1009.89,VALID,0,VALID,101.606,VALID,0,VALID,24.7854,VALID,103,VALID,0.524609,
2010-04-25, 00:55:04,VALID,1009.89,VALID,0,VALID,101.636,VALID,0.105969,VALID,24.7445,VALID,71,VALID,0.621094,
2010-04-25, 00:56:04,VALID,1009.87,VALID,0,VALID,101.644,VALID,0.105969,VALID,24.7464,VALID,82,VALID,0.93125,
2010-04-25, 00:57:04,VALID,1009.86,VALID,0,VALID,101.621,VALID,0.105969,VALID,24.725,VALID,78,VALID,0.842188,
2010-04-25, 00:58:04,VALID,1009.82,VALID,0,VALID,101.659,VALID,0.105969,VALID,24.725,VALID,77,VALID,0.905859,
2010-04-25, 00:59:04,VALID,1009.82,VALID,0,VALID,101.667,VALID,0.105969,VALID,24.7464,VALID,77,VALID,0.588672,
2010-04-25, 01:00:04,VALID,1009.77,VALID,0,VALID,101.689,VALID,0.105969,VALID,24.7445,VALID,70,VALID,0.40625,
2010-04-25, 01:01:04,VALID,1009.79,VALID,0,VALID,101.712,VALID,0.105969,VALID,24.7055,VALID,69,VALID,0.548047,
2010-04-25, 01:02:04,VALID,1009.77,VALID,0,VALID,101.712,VALID,0,VALID,24.7269,VALID,84,VALID,0.626953,
2010-04-25, 01:03:04,VALID,1009.79,VALID,0,VALID,101.705,VALID,0.105969,VALID,24.7055,VALID,93,VALID,0.853516,
2010-04-25, 01:04:04,VALID,1009.79,VALID,0,VALID,101.728,VALID,0,VALID,24.7055,VALID,85,VALID,0.330469,
2010-04-25, 01:05:04,VALID,1009.8,VALID,0,VALID,101.75,VALID,0,VALID,24.7074,VALID,60,VALID,0.292578,
2010-04-25, 01:06:04,VALID,1009.79,VALID,0,VALID,101.758,VALID,0,VALID,24.6879,VALID,70,VALID,0.910156,
2010-04-25, 01:07:04,VALID,1009.8,VALID,0,VALID,101.743,VALID,0.105969,VALID,24.686,VALID,53,VALID,0.360938,
2010-04-25, 01:08:04,VALID,1009.78,VALID,0,VALID,101.758,VALID,0.105969,VALID,24.6879,VALID,106,VALID,0.702344,
2010-04-25, 01:09:04,VALID,1009.74,VALID,0,VALID,101.758,VALID,0.105969,VALID,24.6666,VALID,65,VALID,0.685938,
2010-04-25, 01:10:04,VALID,1009.73,VALID,0,VALID,101.773,VALID,0.105969,VALID,24.6879,VALID,103,VALID,0.745703,
2010-04-25, 01:11:04,VALID,1009.7,VALID,0,VALID,101.743,VALID,0,VALID,24.6684,VALID,87,VALID,0.763281,
2010-04-25, 01:12:04,VALID,1009.69,VALID,0,VALID,101.75,VALID,0,VALID,24.6471,VALID,84,VALID,0.550391,
2010-04-25, 01:13:04,VALID,1009.68,VALID,0,VALID,101.743,VALID,0,VALID,24.6684,VALID,95,VALID,1.42617,
2010-04-25, 01:14:04,VALID,1009.69,VALID,0,VALID,101.758,VALID,0,VALID,24.6684,VALID,79,VALID,0.839063,
2010-04-25, 01:15:04,VALID,1009.67,VALID,0,VALID,101.735,VALID,0,VALID,24.6471,VALID,91,VALID,0.853516,
2010-04-25, 01:16:04,VALID,1009.68,VALID,0,VALID,101.735,VALID,0,VALID,24.6666,VALID,91,VALID,0.974609,
2010-04-25, 01:17:04,VALID,1009.65,VALID,0,VALID,101.735,VALID,0.105969,VALID,24.6684,VALID,96,VALID,0.667578,
2010-04-25, 01:18:04,VALID,1009.66,VALID,0,VALID,101.72,VALID,0,VALID,24.6684,VALID,89,VALID,0.941797,
2010-04-25, 01:19:04,VALID,1009.6,VALID,0,VALID,101.728,VALID,0.105969,VALID,24.6471,VALID,106,VALID,0.551953,
2010-04-25, 01:20:04,VALID,1009.6,VALID,0,VALID,101.728,VALID,0,VALID,24.6276,VALID,68,VALID,0.759766,
2010-04-25, 01:21:04,VALID,1009.57,VALID,0,VALID,101.705,VALID,0,VALID,24.6489,VALID,77,VALID,0.89375,
2010-04-25, 01:22:04,VALID,1009.57,VALID,0,VALID,101.697,VALID,0,VALID,24.6294,VALID,86,VALID,0.646094,
2010-04-25, 01:23:04,VALID,1009.55,VALID,0,VALID,101.705,VALID,0,VALID,24.6081,VALID,83,VALID,1.38789,
2010-04-25, 01:24:04,VALID,1009.56,VALID,0,VALID,101.712,VALID,0,VALID,24.6099,VALID,67,VALID,0.637109,
2010-04-25, 01:25:04,VALID,1009.55,VALID,0,VALID,101.689,VALID,0.105969,VALID,24.6099,VALID,97,VALID,1.06523,
2010-04-25, 01:26:04,VALID,1009.54,VALID,0,VALID,101.728,VALID,0,VALID,24.5905,VALID,45,VALID,0.364453,
2010-04-25, 01:27:04,VALID,1009.54,VALID,0,VALID,101.75,VALID,0,VALID,24.5905,VALID,70,VALID,0.370313,
2010-04-25, 01:28:04,VALID,1009.52,VALID,0,VALID,101.75,VALID,0,VALID,24.5905,VALID,65,VALID,0.953125,
2010-04-25, 01:29:04,VALID,1009.53,VALID,0,VALID,101.75,VALID,0.105969,VALID,24.5691,VALID,85,VALID,0.642969,
2010-04-25, 01:30:04,VALID,1009.52,VALID,0,VALID,101.75,VALID,0,VALID,24.571,VALID,55,VALID,0.898047,
2010-04-25, 01:31:04,VALID,1009.5,VALID,0,VALID,101.758,VALID,0,VALID,24.571,VALID,68,VALID,0.901172,
2010-04-25, 01:32:04,VALID,1009.46,VALID,0,VALID,101.766,VALID,0,VALID,24.5496,VALID,81,VALID,1.03164,
2010-04-25, 01:33:04,VALID,1009.41,VALID,0,VALID,101.766,VALID,0.105969,VALID,24.5301,VALID,100,VALID,1.37266,
2010-04-25, 01:34:04,VALID,1009.41,VALID,0,VALID,101.773,VALID,0.105969,VALID,24.5515,VALID,38,VALID,0.199219,
2010-04-25, 01:35:04,VALID,1009.41,VALID,0,VALID,101.789,VALID,0.105969,VALID,24.5301,VALID,78,VALID,1.41758,
2010-04-25, 01:36:04,VALID,1009.36,VALID,0,VALID,101.796,VALID,0,VALID,24.532,VALID,81,VALID,0.776953,
2010-04-25, 01:37:04,VALID,1009.38,VALID,0,VALID,101.819,VALID,0,VALID,24.5125,VALID,64,VALID,1.0418,
2010-04-25, 01:38:04,VALID,1009.37,VALID,0,VALID,101.811,VALID,0.105969,VALID,24.4911,VALID,94,VALID,0.599219,
2010-04-25, 01:39:04,VALID,1009.36,VALID,0,VALID,101.834,VALID,0.105969,VALID,24.5125,VALID,94,VALID,0.0476562,
2010-04-25, 01:40:04,VALID,1009.32,VALID,0,VALID,101.827,VALID,0,VALID,24.493,VALID,90,VALID,0.823047,
2010-04-25, 01:41:04,VALID,1009.32,VALID,0,VALID,101.872,VALID,0,VALID,24.493,VALID,52,VALID,0.572266,
2010-04-25, 01:42:04,VALID,1009.31,VALID,0,VALID,101.865,VALID,0.105969,VALID,24.493,VALID,77,VALID,0.828906,
2010-04-25, 01:43:04,VALID,1009.27,VALID,0,VALID,101.865,VALID,0.105969,VALID,24.4735,VALID,44,VALID,0.423438,
2010-04-25, 01:44:04,VALID,1009.26,VALID,0,VALID,101.88,VALID,0.105969,VALID,24.4735,VALID,64,VALID,0.329297,
2010-04-25, 01:45:04,VALID,1009.22,VALID,0,VALID,101.895,VALID,0.105969,VALID,24.4735,VALID,91,VALID,0.689453,
2010-04-25, 01:46:04,VALID,1009.2,VALID,0,VALID,101.911,VALID,0.105969,VALID,24.4522,VALID,61,VALID,0.851172,
2010-04-25, 01:47:04,VALID,1009.19,VALID,0,VALID,101.911,VALID,0.105969,VALID,24.4327,VALID,58,VALID,0.449609,
2010-04-25, 01:48:04,VALID,1009.16,VALID,0,VALID,101.933,VALID,0.105969,VALID,24.4327,VALID,88,VALID,0.417188,
2010-04-25, 01:49:04,VALID,1009.16,VALID,0,VALID,101.964,VALID,0.105969,VALID,24.4327,VALID,100,VALID,0.195703,
2010-04-25, 01:50:04,VALID,1009.13,VALID,0,VALID,101.956,VALID,0,VALID,24.3937,VALID,68,VALID,0.105078,
2010-04-25, 01:51:04,VALID,1009.15,VALID,0,VALID,101.949,VALID,0.105969,VALID,24.415,VALID,68,VALID,0.31875,
2010-04-25, 01:52:04,VALID,1009.15,VALID,0,VALID,101.964,VALID,0,VALID,24.415,VALID,68,VALID,0,
2010-04-25, 01:53:04,VALID,1009.11,VALID,0,VALID,101.972,VALID,0.105969,VALID,24.3742,VALID,68,VALID,0,
2010-04-25, 01:54:04,VALID,1009.08,VALID,0,VALID,101.987,VALID,0.105969,VALID,24.3742,VALID,66,VALID,0.0511719,
2010-04-25, 01:55:04,VALID,1009.04,VALID,0,VALID,101.987,VALID,0,VALID,24.3742,VALID,46,VALID,0.765625,
2010-04-25, 01:56:04,VALID,1009.05,VALID,0,VALID,102.01,VALID,0,VALID,24.3761,VALID,102,VALID,0.910547,
2010-04-25, 01:57:04,VALID,1009.06,VALID,0,VALID,102.04,VALID,0,VALID,24.3547,VALID,90,VALID,0.769531,
2010-04-25, 01:58:04,VALID,1009,VALID,0,VALID,102.04,VALID,0.105969,VALID,24.3352,VALID,91,VALID,0.151562,
2010-04-25, 01:59:04,VALID,1008.99,VALID,0,VALID,102.04,VALID,0,VALID,24.3158,VALID,66,VALID,0.65625,
2010-04-25, 02:00:04,VALID,1009.01,VALID,0,VALID,102.063,VALID,0,VALID,24.3371,VALID,58,VALID,0.366406,
2010-04-25, 02:01:04,VALID,1008.97,VALID,0,VALID,102.078,VALID,0,VALID,24.3176,VALID,58,VALID,0.325781,
2010-04-25, 02:02:04,VALID,1008.95,VALID,0,VALID,102.101,VALID,0.105969,VALID,24.2963,VALID,58,VALID,0.103516,
2010-04-25, 02:03:04,VALID,1008.94,VALID,0,VALID,102.086,VALID,0,VALID,24.3176,VALID,79,VALID,0.617969,
2010-04-25, 02:04:04,VALID,1008.95,VALID,0,VALID,102.109,VALID,0.105969,VALID,24.2768,VALID,27,VALID,0.419141,
2010-04-25, 02:05:04,VALID,1008.92,VALID,0,VALID,102.132,VALID,0.105969,VALID,24.2768,VALID,79,VALID,0.25625,
2010-04-25, 02:06:04,VALID,1008.94,VALID,0,VALID,102.132,VALID,0.105969,VALID,24.2768,VALID,57,VALID,0.464844,
2010-04-25, 02:07:04,VALID,1008.93,VALID,0,VALID,102.132,VALID,0,VALID,24.2573,VALID,66,VALID,0.218359,
2010-04-25, 02:08:04,VALID,1008.92,VALID,0,VALID,102.162,VALID,0,VALID,24.2573,VALID,34,VALID,0.549609,
2010-04-25, 02:09:04,VALID,1008.93,VALID,0,VALID,102.162,VALID,0,VALID,24.2786,VALID,34,VALID,0.542969,
2010-04-25, 02:10:04,VALID,1008.92,VALID,0,VALID,102.177,VALID,0,VALID,24.2573,VALID,42,VALID,0.167578,
2010-04-25, 02:11:04,VALID,1008.89,VALID,0,VALID,102.17,VALID,0.105969,VALID,24.2378,VALID,42,VALID,0,
2010-04-25, 02:12:04,VALID,1008.89,VALID,0,VALID,102.17,VALID,0,VALID,24.2378,VALID,42,VALID,0.223047,
2010-04-25, 02:13:04,VALID,1008.88,VALID,0,VALID,102.185,VALID,0,VALID,24.2396,VALID,43,VALID,0.262891,
2010-04-25, 02:14:04,VALID,1008.89,VALID,0,VALID,102.2,VALID,0,VALID,24.2202,VALID,43,VALID,0.222266,
2010-04-25, 02:15:04,VALID,1008.88,VALID,0,VALID,102.2,VALID,0,VALID,24.1988,VALID,43,VALID,0.171875,
2010-04-25, 02:16:04,VALID,1008.86,VALID,0,VALID,102.185,VALID,0,VALID,24.222,VALID,57,VALID,0.552344,
2010-04-25, 02:17:04,VALID,1008.86,VALID,0,VALID,102.193,VALID,0,VALID,24.2007,VALID,59,VALID,0.028125,
2010-04-25, 02:18:04,VALID,1008.85,VALID,0,VALID,102.208,VALID,0,VALID,24.1812,VALID,59,VALID,0.399219,
2010-04-25, 02:19:04,VALID,1008.85,VALID,0,VALID,102.193,VALID,0,VALID,24.1812,VALID,69,VALID,0.328516,
2010-04-25, 02:20:04,VALID,1008.88,VALID,0,VALID,102.231,VALID,0,VALID,24.2025,VALID,69,VALID,0.448828,
2010-04-25, 02:21:04,VALID,1008.88,VALID,0,VALID,102.216,VALID,0,VALID,24.183,VALID,70,VALID,0.459766,
2010-04-25, 02:22:04,VALID,1008.89,VALID,0,VALID,102.246,VALID,0,VALID,24.2025,VALID,60,VALID,0.371875,
2010-04-25, 02:23:04,VALID,1008.89,VALID,0,VALID,102.216,VALID,0,VALID,24.1812,VALID,86,VALID,0.574609,
2010-04-25, 02:24:04,VALID,1008.87,VALID,0,VALID,102.231,VALID,0,VALID,24.1812,VALID,98,VALID,0.614844,
2010-04-25, 02:25:04,VALID,1008.86,VALID,0,VALID,102.246,VALID,0,VALID,24.2025,VALID,108,VALID,1.07656,
2010-04-25, 02:26:04,VALID,1008.86,VALID,0,VALID,102.261,VALID,0,VALID,24.1812,VALID,102,VALID,0.8,
2010-04-25, 02:27:04,VALID,1008.86,VALID,0,VALID,102.269,VALID,0,VALID,24.2025,VALID,132,VALID,1.01445,
2010-04-25, 02:28:04,VALID,1008.88,VALID,0,VALID,102.269,VALID,0,VALID,24.2025,VALID,98,VALID,0.865234,
2010-04-25, 02:29:04,VALID,1008.86,VALID,0,VALID,102.284,VALID,0,VALID,24.222,VALID,112,VALID,1.04375,
2010-04-25, 02:30:04,VALID,1008.85,VALID,0,VALID,102.261,VALID,0,VALID,24.2202,VALID,112,VALID,0.467187,
2010-04-25, 02:31:04,VALID,1008.83,VALID,0,VALID,102.269,VALID,0,VALID,24.1988,VALID,113,VALID,0.554297,
2010-04-25, 02:32:04,VALID,1008.82,VALID,0,VALID,102.269,VALID,0,VALID,24.2183,VALID,134,VALID,0.368359,
2010-04-25, 02:33:04,VALID,1008.79,VALID,0,VALID,102.284,VALID,0.105969,VALID,24.2183,VALID,121,VALID,0.920703,
2010-04-25, 02:34:04,VALID,1008.77,VALID,0,VALID,102.269,VALID,0.105969,VALID,24.1793,VALID,130,VALID,0.258203,
2010-04-25, 02:35:04,VALID,1008.77,VALID,0,VALID,102.261,VALID,0,VALID,24.1812,VALID,114,VALID,0.812891,
2010-04-25, 02:36:04,VALID,1008.77,VALID,0,VALID,102.254,VALID,0,VALID,24.1599,VALID,110,VALID,0.28125,
2010-04-25, 02:37:04,VALID,1008.76,VALID,0,VALID,102.254,VALID,0,VALID,24.1812,VALID,110,VALID,0.707812,
2010-04-25, 02:38:04,VALID,1008.78,VALID,0,VALID,102.246,VALID,0.105969,VALID,24.1599,VALID,112,VALID,0.560547,
2010-04-25, 02:39:04,VALID,1008.75,VALID,0,VALID,102.254,VALID,0,VALID,24.1793,VALID,112,VALID,0.270703,
2010-04-25, 02:40:04,VALID,1008.74,VALID,0,VALID,102.277,VALID,0.105969,VALID,24.1599,VALID,116,VALID,0.517578,
2010-04-25, 02:41:04,VALID,1008.73,VALID,0,VALID,102.254,VALID,0.105969,VALID,24.1404,VALID,126,VALID,0.441797,
2010-04-25, 02:42:04,VALID,1008.7,VALID,0,VALID,102.254,VALID,0.105969,VALID,24.1422,VALID,130,VALID,0.298047,
2010-04-25, 02:43:04,VALID,1008.7,VALID,0,VALID,102.277,VALID,0.105969,VALID,24.1014,VALID,158,VALID,0.580469,
2010-04-25, 02:44:04,VALID,1008.7,VALID,0,VALID,102.238,VALID,0.105969,VALID,24.0819,VALID,139,VALID,0.530859,
2010-04-25, 02:45:04,VALID,1008.68,VALID,0,VALID,102.254,VALID,0.105969,VALID,24.0624,VALID,149,VALID,0.626172,
2010-04-25, 02:46:04,VALID,1008.66,VALID,0,VALID,102.238,VALID,0,VALID,24.0624,VALID,152,VALID,0.708203,
2010-04-25, 02:47:04,VALID,1008.67,VALID,0,VALID,102.238,VALID,0,VALID,24.0429,VALID,157,VALID,0.664063,
2010-04-25, 02:48:04,VALID,1008.67,VALID,0,VALID,102.246,VALID,0,VALID,24.0448,VALID,155,VALID,0.340234,
2010-04-25, 02:49:04,VALID,1008.66,VALID,0,VALID,102.254,VALID,0.105969,VALID,24.0235,VALID,158,VALID,0.49375,
2010-04-25, 02:50:04,VALID,1008.68,VALID,0,VALID,102.277,VALID,0.105969,VALID,24.004,VALID,164,VALID,0.776953,
2010-04-25, 02:51:04,VALID,1008.68,VALID,0,VALID,102.261,VALID,0.105969,VALID,24.0058,VALID,171,VALID,0.672266,
2010-04-25, 02:52:04,VALID,1008.71,VALID,0,VALID,102.261,VALID,0,VALID,23.9863,VALID,171,VALID,0.592969,
2010-04-25, 02:53:04,VALID,1008.69,VALID,0,VALID,102.261,VALID,0.105969,VALID,23.9863,VALID,167,VALID,0.521484,
2010-04-25, 02:54:04,VALID,1008.68,VALID,0,VALID,102.261,VALID,0.105969,VALID,23.965,VALID,164,VALID,0.388672,
2010-04-25, 02:55:04,VALID,1008.69,VALID,0,VALID,102.284,VALID,0,VALID,23.9455,VALID,164,VALID,0.521484,
2010-04-25, 02:56:04,VALID,1008.68,VALID,0,VALID,102.284,VALID,0,VALID,23.926,VALID,147,VALID,0.536719,
2010-04-25, 02:57:04,VALID,1008.69,VALID,0,VALID,102.261,VALID,0,VALID,23.9455,VALID,144,VALID,0.473437,
2010-04-25, 02:58:04,VALID,1008.64,VALID,0,VALID,102.299,VALID,0,VALID,23.9473,VALID,144,VALID,0.413672,
2010-04-25, 02:59:04,VALID,1008.6,VALID,0,VALID,102.277,VALID,0,VALID,23.9668,VALID,117,VALID,0.802734,
2010-04-25, 03:00:04,VALID,1008.6,VALID,0,VALID,102.261,VALID,0,VALID,23.965,VALID,111,VALID,0.442969,
2010-04-25, 03:01:04,VALID,1008.56,VALID,0,VALID,102.284,VALID,0,VALID,23.9863,VALID,106,VALID,0.769141,
2010-04-25, 03:02:04,VALID,1008.53,VALID,0,VALID,102.292,VALID,0,VALID,23.965,VALID,93,VALID,1.10625,
2010-04-25, 03:03:04,VALID,1008.54,VALID,0,VALID,102.307,VALID,0,VALID,24.0253,VALID,107,VALID,1.20078,
2010-04-25, 03:04:04,VALID,1008.51,VALID,0,VALID,102.307,VALID,0,VALID,24.004,VALID,103,VALID,0.635547,
2010-04-25, 03:05:04,VALID,1008.49,VALID,0,VALID,102.322,VALID,0,VALID,24.004,VALID,91,VALID,0.599609,
2010-04-25, 03:06:04,VALID,1008.47,VALID,0,VALID,102.33,VALID,0.105969,VALID,24.0235,VALID,97,VALID,1.00547,
2010-04-25, 03:07:04,VALID,1008.44,VALID,0,VALID,102.307,VALID,0,VALID,24.0235,VALID,100,VALID,0.592969,
2010-04-25, 03:08:04,VALID,1008.43,VALID,0,VALID,102.33,VALID,0,VALID,24.0253,VALID,87,VALID,1.12656,
2010-04-25, 03:09:04,VALID,1008.4,VALID,0,VALID,102.292,VALID,0,VALID,24.0235,VALID,75,VALID,0.816406,
2010-04-25, 03:10:04,VALID,1008.39,VALID,0,VALID,102.299,VALID,0,VALID,24.0235,VALID,92,VALID,0.895312,
2010-04-25, 03:11:04,VALID,1008.39,VALID,0,VALID,102.269,VALID,0,VALID,24.004,VALID,78,VALID,0.787891,
2010-04-25, 03:12:04,VALID,1008.36,VALID,0,VALID,102.284,VALID,0.105969,VALID,24.004,VALID,88,VALID,0.815234,
2010-04-25, 03:13:04,VALID,1008.38,VALID,0,VALID,102.254,VALID,0.105969,VALID,24.0253,VALID,89,VALID,0.701172,
2010-04-25, 03:14:04,VALID,1008.41,VALID,0,VALID,102.261,VALID,0,VALID,24.004,VALID,69,VALID,0.833984,
2010-04-25, 03:15:04,VALID,1008.38,VALID,0,VALID,102.261,VALID,0.105969,VALID,23.9845,VALID,92,VALID,0.7375,
2010-04-25, 03:16:04,VALID,1008.42,VALID,0,VALID,102.254,VALID,0,VALID,23.9863,VALID,92,VALID,0.628125,
2010-04-25, 03:17:04,VALID,1008.36,VALID,0,VALID,102.238,VALID,0.105969,VALID,23.965,VALID,77,VALID,0.884375,
2010-04-25, 03:18:04,VALID,1008.41,VALID,0,VALID,102.231,VALID,0,VALID,23.9863,VALID,96,VALID,0.808984,
2010-04-25, 03:19:04,VALID,1008.47,VALID,0,VALID,102.223,VALID,0,VALID,23.9668,VALID,92,VALID,0.577734,
2010-04-25, 03:20:04,VALID,1008.46,VALID,0,VALID,102.231,VALID,0,VALID,23.9455,VALID,97,VALID,0.629297,
2010-04-25, 03:21:04,VALID,1008.51,VALID,0,VALID,102.246,VALID,0.105969,VALID,23.9863,VALID,98,VALID,0.644531,
2010-04-25, 03:22:04,VALID,1008.51,VALID,0,VALID,102.238,VALID,0.105969,VALID,23.965,VALID,97,VALID,0.745703,
2010-04-25, 03:23:04,VALID,1008.52,VALID,0,VALID,102.231,VALID,0.105969,VALID,23.965,VALID,143,VALID,0.896875,
2010-04-25, 03:24:04,VALID,1008.5,VALID,0,VALID,102.238,VALID,0,VALID,23.9455,VALID,138,VALID,0.871484,
2010-04-25, 03:25:04,VALID,1008.52,VALID,0,VALID,102.231,VALID,0,VALID,23.926,VALID,137,VALID,0.866016,
2010-04-25, 03:26:04,VALID,1008.53,VALID,0,VALID,102.231,VALID,0,VALID,23.9278,VALID,144,VALID,0.931641,
2010-04-25, 03:27:04,VALID,1008.55,VALID,0,VALID,102.223,VALID,0,VALID,23.9278,VALID,133,VALID,0.798437,
2010-04-25, 03:28:04,VALID,1008.57,VALID,0,VALID,102.216,VALID,0,VALID,23.9278,VALID,117,VALID,0.601172,
2010-04-25, 03:29:04,VALID,1008.58,VALID,0,VALID,102.2,VALID,0.105969,VALID,23.9065,VALID,116,VALID,0.321484,
2010-04-25, 03:30:04,VALID,1008.59,VALID,0,VALID,102.238,VALID,0,VALID,23.9084,VALID,111,VALID,0.782422,
2010-04-25, 03:31:04,VALID,1008.61,VALID,0,VALID,102.246,VALID,0,VALID,23.9065,VALID,110,VALID,0.555469,
2010-04-25, 03:32:04,VALID,1008.64,VALID,0,VALID,102.238,VALID,0,VALID,23.9084,VALID,121,VALID,0.699609,
2010-04-25, 03:33:04,VALID,1008.65,VALID,0,VALID,102.261,VALID,0.105969,VALID,23.9065,VALID,139,VALID,0.763281,
2010-04-25, 03:34:04,VALID,1008.63,VALID,0,VALID,102.246,VALID,0,VALID,23.9065,VALID,109,VALID,0.392188,
2010-04-25, 03:35:04,VALID,1008.62,VALID,0,VALID,102.254,VALID,0,VALID,23.9278,VALID,102,VALID,0.46875,
2010-04-25, 03:36:04,VALID,1008.61,VALID,0,VALID,102.254,VALID,0.105969,VALID,23.9065,VALID,87,VALID,0.625781,
2010-04-25, 03:37:04,VALID,1008.58,VALID,0,VALID,102.254,VALID,0,VALID,23.8871,VALID,78,VALID,1.0375,
2010-04-25, 03:38:04,VALID,1008.57,VALID,0,VALID,102.269,VALID,0,VALID,23.9084,VALID,70,VALID,0.860937,
2010-04-25, 03:39:04,VALID,1008.55,VALID,0,VALID,102.261,VALID,0,VALID,23.8871,VALID,61,VALID,1.17969,
2010-04-25, 03:40:04,VALID,1008.55,VALID,0,VALID,102.238,VALID,0,VALID,23.8871,VALID,76,VALID,0.648438,